Simultaneous Nadir Overpasses (SNOs) Predictions

Prediction of SNOs between METOP-A and TERRA Satellite Orbit:

Table of predicted SNOs for the next 14.0 days since TLE Epoch: 7/27/2019
Index Date (METOP-A) Time (METOP-A) Lat,Lon (METOP-A) SZA (METOP-A ) Date (TERRA) Time (TERRA) Lat,Lon (TERRA) SZA (TERRA ) Distance(km) Time Diff (sec)
1 07/28/2019 01:42:47 -81.45, 23.99 114.69 07/28/2019 01:43:58 -81.46, 24.19 114.63 3.25 71
2 07/28/2019 02:33:27 81.45,-168.30 65.37 07/28/2019 02:33:25 81.44,-168.46 65.34 2.75 2
3 07/30/2019 21:17:09 -81.45, 90.60 114.00 07/30/2019 21:18:12 -81.45, 90.59 113.97 0.51 63
4 07/30/2019 22:07:50 81.45,-102.14 66.01 07/30/2019 22:07:39 81.44,-102.08 66.00 1.52 11
5 08/02/2019 16:51:33 -81.45, 156.80 113.32 08/02/2019 16:52:27 -81.45, 156.95 113.27 2.59 54
6 08/02/2019 17:42:12 81.44, -35.18 66.77 08/02/2019 17:41:53 81.45, -35.35 66.75 2.94 19
7 08/05/2019 12:25:56 -81.45,-136.62 112.55 08/05/2019 12:26:42 -81.45,-136.73 112.55 1.93 46
8 08/05/2019 13:16:36 81.45, 30.96 67.49 08/05/2019 13:16:08 81.45, 30.95 67.47 0.25 28
9 08/08/2019 08:00:18 -81.45, -70.04 111.75 08/08/2019 08:00:55 -81.46, -70.07 111.73 1.09 37




NCC Satellite Simultaneous Nadir Overpasses (SNOs) Prediction Service
